| time (UTC) | temp F | wind direction | speed knots | gust knots | rain 1hr in | rain 24hr in | rain mn in | humidity % | barometer mb |
| 20260504223038 | 37 | 0 | 3.5 | 8.7 | 0.00 | 0.00 | 0.00 | 69 | |
| 20260504222040 | 37 | 0 | 3.5 | 10.4 | 0.00 | 0.00 | 0.00 | 70 | |
| 20260504221039 | 37 | 0 | 5.2 | 9.6 | 0.00 | 0.00 | 0.00 | 70 | |
| 20260504220040 | 37 | 0 | 4.3 | 8.7 | 0.00 | 0.00 | 0.00 | 70 | |
| 20260504215100 | 37 | 0 | 3.5 | 8.7 | 0.00 | 0.00 | 0.00 | 71 | |
| 20260504214041 | 37 | 0 | 6.1 | 8.7 | 0.00 | 0.00 | 0.00 | 70 | |
| 20260504213101 | 38 | 0 | 5.2 | 8.7 | 0.00 | 0.00 | 0.00 | 70 | |
| 20260504212042 | 38 | 0 | 3.5 | 8.7 | 0.00 | 0.00 | 0.00 | 71 | |
| 20260504211039 | 37 | 0 | 5.2 | 7.8 | 0.00 | 0.00 | 0.00 | 74 | |
| 20260504210041 | 37 | 0 | 3.5 | 9.6 | 0.00 | 0.00 | 0.00 | 77 | |
| 20260504205059 | 37 | 0 | 4.3 | 9.6 | 0.00 | 0.00 | 0.00 | 76 | |
| 20260504204041 | 38 | 0 | 4.3 | 9.6 | 0.00 | 0.00 | 0.00 | 77 | |
| 20260504203038 | 38 | 0 | 3.5 | 8.7 | 0.00 | 0.00 | 0.00 | 78 | |
| 20260504202041 | 38 | 0 | 4.3 | 8.7 | 0.00 | 0.00 | 0.00 | 75 | |
| 20260504201040 | 38 | 0 | 5.2 | 10.4 | 0.00 | 0.00 | 0.00 | 73 | |
| 20260504200041 | 38 | 0 | 4.3 | 9.6 | 0.00 | 0.00 | 0.00 | 74 | |
| 20260504195039 | 38 | 0 | 4.3 | 8.7 | 0.00 | 0.00 | 0.00 | 72 | |
| 20260504194040 | 38 | 0 | 5.2 | 9.6 | 0.00 | 0.00 | 0.00 | 72 | |
| 20260504193039 | 38 | 0 | 3.5 | 8.7 | 0.00 | 0.00 | 0.00 | 72 | |
| 20260504192041 | 38 | 0 | 6.1 | 10.4 | 0.00 | 0.00 | 0.00 | 71 | |
| 20260504191100 | 38 | 0 | 5.2 | 9.6 | 0.00 | 0.00 | 0.00 | 71 | |
| 20260504185042 | 38 | 0 | 7.0 | 10.4 | 0.00 | 0.00 | 0.00 | 66 | |
| 20260504184040 | 39 | 0 | 5.2 | 9.6 | 0.00 | 0.00 | 0.00 | 66 | |
| 20260504183040 | 39 | 0 | 6.1 | 10.4 | 0.00 | 0.00 | 0.00 | 67 | |
| 20260504182121 | 39 | 0 | 6.1 | 10.4 | 0.00 | 0.00 | 0.00 | 66 | |
| 20260504181038 | 39 | 0 | 3.5 | 8.7 | 0.00 | 0.00 | 0.00 | 68 | |
| 20260504180040 | 39 | 0 | 6.1 | 10.4 | 0.00 | 0.00 | 0.00 | 68 | |
| 20260504175120 | 39 | 0 | 5.2 | 9.6 | 0.00 | 0.00 | 0.00 | 73 | |
| 20260504174102 | 38 | 0 | 4.3 | 8.7 | 0.00 | 0.00 | 0.00 | 77 | |
| 20260504173040 | 39 | 0 | 2.6 | 7.8 | 0.00 | 0.00 | 0.00 | 76 | |
| 20260504172040 | 39 | 0 | 5.2 | 8.7 | 0.00 | 0.00 | 0.00 | 72 | |
| 20260504171041 | 40 | 0 | 4.3 | 9.6 | 0.00 | 0.00 | 0.00 | 72 | |
| 20260504150537 | 0 | 0.0 | 0.0 | 0.00 | 0.00 | 0.00 | |||
| 20260504141038 | 0 | 0.0 | 0.0 | 0.00 | 0.00 | 0.00 | |||
| 20260504100537 | 0 | 0.0 | 0.0 | 0.00 | 0.00 | 0.00 | |||
| 20260504081036 | 0 | 0.0 | 0.0 | 0.00 | 0.00 | 0.00 | |||
| 20260504045037 | 0 | 0.0 | 0.0 | 0.00 | 0.00 | 0.00 | |||
| 20260504044036 | 0 | 0.0 | 0.0 | 0.00 | 0.00 | 0.00 | |||
| 20260504043537 | 0 | 0.0 | 0.0 | 0.00 | 0.00 | 0.00 | |||
| 20260504042537 | 0 | 0.0 | 0.0 | 0.00 | 0.00 | 0.00 | |||
| 20260504041535 | 0 | 0.0 | 0.0 | 0.00 | 0.00 | 0.00 | |||
| 20260504040536 | 0 | 0.0 | 0.0 | 0.00 | 0.00 | 0.00 | |||
| 20260504035536 | 0 | 0.0 | 0.0 | 0.00 | 0.00 | 0.00 | |||
| 20260504034535 | 0 | 0.0 | 0.0 | 0.00 | 0.00 | 0.00 | |||
| 20260504033535 | 0 | 0.0 | 0.0 | 0.00 | 0.00 | 0.00 | |||
| 20260504032536 | 0 | 0.0 | 0.0 | 0.00 | 0.00 | 0.00 | |||
| 20260504031537 | 0 | 0.0 | 0.0 | 0.00 | 0.00 | 0.00 | |||
| 20260504030535 | 0 | 0.0 | 0.0 | 0.00 | 0.00 | 0.00 | |||
| 20260504025537 | 0 | 0.0 | 0.0 | 0.00 | 0.00 | 0.00 | |||
| 20260504024536 | 0 | 0.0 | 0.0 | 0.00 | 0.00 | 0.00 | |||
| 20260504023538 | 0 | 0.0 | 0.0 | 0.00 | 0.00 | 0.00 | |||
| 20260504022558 | 0 | 0.0 | 0.0 | 0.00 | 0.00 | 0.00 | |||
| 20260504021536 | 0 | 0.0 | 0.0 | 0.00 | 0.00 | 0.00 | |||
| 20260504020538 | 0 | 0.0 | 0.0 | 0.00 | 0.00 | 0.00 | |||
| 20260504015537 | 0 | 0.0 | 0.0 | 0.00 | 0.00 | 0.00 | |||
| 20260504014536 | 0 | 0.0 | 0.0 | 0.00 | 0.00 | 0.00 | |||
| 20260504013539 | 0 | 0.0 | 0.0 | 0.00 | 0.00 | 0.00 | |||
| 20260504012537 | 0 | 0.0 | 0.0 | 0.00 | 0.00 | 0.00 | |||
| 20260504011557 | 0 | 0.0 | 0.0 | 0.00 | 0.00 | 0.00 | |||
| 20260504011024 | 66 | 0.0 | 0.0 | 0.00 | 0.00 | 0.00 | 31 | ||
| 20260504010039 | 66 | 0 | 5.2 | 8.7 | 0.00 | 0.00 | 0.00 | 31 | |
| 20260504005100 | 66 | 0 | 7.0 | 9.6 | 0.00 | 0.00 | 0.00 | 33 | |
| 20260504004042 | 67 | 0 | 7.0 | 9.6 | 0.00 | 0.00 | 0.00 | 33 | |
| 20260504003038 | 67 | 0 | 5.2 | 8.7 | 0.00 | 0.00 | 0.00 | 32 | |
| 20260504002038 | 67 | 0 | 6.1 | 9.6 | 0.00 | 0.00 | 0.00 | 32 | |
| 20260504001038 | 68 | 0 | 4.3 | 9.6 | 0.00 | 0.00 | 0.00 | 40 | |
| 20260504000041 | 68 | 0 | 5.2 | 9.6 | 0.00 | 0.00 | 0.00 | 40 | |
| 20260503235118 | 68 | 0 | 6.1 | 11.3 | 0.00 | 0.00 | 0.00 | 40 | |
| 20260503234040 | 68 | 0 | 5.2 | 10.4 | 0.00 | 0.00 | 0.00 | 40 | |
| 20260503233038 | 69 | 0 | 4.3 | 9.6 | 0.00 | 0.00 | 0.00 | 40 | |
| 20260503232058 | 69 | 0 | 5.2 | 9.6 | 0.00 | 0.00 | 0.00 | 38 | |
| 20260503231101 | 70 | 0 | 4.3 | 9.6 | 0.00 | 0.00 | 0.00 | 36 | |
| 20260503230120 | 70 | 0 | 5.2 | 9.6 | 0.00 | 0.00 | 0.00 | 36 | |
| 20260503225037 | 70 | 0 | 4.3 | 11.3 | 0.00 | 0.00 | 0.00 | 35 | |
| 20260503224041 | 70 | 0 | 1.7 | 7.0 | 0.00 | 0.00 | 0.00 | 33 |